[[{"header":{"parameterUnit":"m.s-1","parameterCategory":1,"la1":30.2991,"la2":30.254,"lo1":-89.0895,"lo2":-89.0444,"dy":0.0017,"dx":0.0017,"nx":28,"ny":28,"refTime":"2024-05-24T03:00:00:Z","depth":0,"parameterNumber":2,"parameterNumberName":"U-component_of_WINDS"},"data":[0,0,0,0,0,0,0,0,0,0,0,0,0,0,0,0,0,0,0,0,0,0,0,0,0,0,0,0,0,0,0,0,0,0,0,0,0,0,0,0,0,0,0,0,0,0,0,0,0,0,0,0,0,0,0,0,0,0,0.7964,0.7965,0,0.8058,0.8059,0.806,0.8082,0.8081,0.808,0.808,0.8177,0.818,0.8183,0,0,0,0,0,0,0,0,0,0,0,0,0,0.7804,0.7807,0.7964,0.7965,0.7967,0.8058,0.8059,0.806,0.8082,0.8081,0.808,0.8079,0.8176,0.8179,0.8183,0,0,0,0,0,0,0,0,0,0,0,0,0,0.7883,0.7808,0.7964,0.7988,0.7991,0.8058,0.8059,0.8061,0.8082,0.8081,0.808,0.8079,0.8174,0.8179,0.8184,0.8233,0,0,0.8198,0.82,0,0,0,0,0,0,0,0,0.7879,0.7889,0.7984,0.7987,0.799,0.8057,0.8038,0.8118,0.8082,0.8048,0.808,0.8079,0.8138,0.8145,0.8165,0.8237,0.8241,0.8199,0.8202,0.8204,0.8205,0,0,0,0,0,0,0,0.7873,0.7885,0.8001,0.7985,0.7989,0.7994,0.8005,0.8053,0.8097,0.8051,0.8052,0.8063,0.8139,0.8161,0.8168,0.8243,0.8199,0.8203,0.8206,0.8208,0.836,0.8361,0,0,0,0,0,0,0.7863,0.788,0.7998,0.8004,0.7931,0.7998,0.801,0.8037,0.8097,0.8105,0.8064,0.8064,0.8153,0.8162,0.8171,0.8232,0.8204,0.8208,0.8211,0.8358,0.836,0.8361,0,0,0,0,0,0,0.786,0.7874,0.7995,0.7943,0.7959,0.8002,0.8032,0.8039,0.806,0.8107,0.8114,0.8077,0.8152,0.8164,0.8217,0.8236,0.821,0.8215,0.8357,0.8359,0.836,0.8355,0,0,0,0,0,0,0.7855,0.7872,0.7891,0.7943,0.7961,0.8039,0.8033,0.8042,0.8068,0.8069,0.8121,0.8129,0.8153,0.821,0.8222,0.8242,0.8218,0.8355,0.8358,0.836,0.8354,0.8357,0.8359,0,0,0,0,0,0.7849,0.7887,0.7892,0.7906,0.7986,0.804,0.805,0.8076,0.807,0.8089,0.8119,0.8128,0.8232,0.8215,0.8229,0.8251,0.8354,0.8357,0.836,0.8353,0.8356,0.8359,0,0,0,0,0,0,0.7836,0.7894,0.7901,0.7956,0.7993,0.8044,0.8069,0.8079,0.8119,0.8118,0.8149,0.816,0.8211,0.8236,0.8217,0.8301,0.8293,0.8298,0.8283,0.8287,0.8289,0.8282,0.8222,0,0,0,0,0,0.784,0.7879,0.7927,0.7971,0.7989,0.8026,0.805,0.8067,0.8106,0.8122,0.8156,0.8194,0.8236,0.8262,0.8303,0.8357,0.8369,0.8379,0.8382,0.8383,0.8388,0.8418,0.8423,0.837,0.837,0.837,0,0,0.7848,0.7884,0.7906,0.7969,0.8,0.8039,0.8039,0.8081,0.811,0.8129,0.8181,0.8206,0.8251,0.8305,0.833,0.8327,0.8405,0.8387,0.8388,0.8392,0.8421,0.8426,0.8431,0.8371,0.8371,0.8371,0,0,0.7882,0.7913,0.7953,0.7983,0.803,0.8054,0.8063,0.8112,0.813,0.8182,0.8197,0.8233,0.8303,0.8335,0.836,0.8405,0.8414,0.8417,0.843,0.846,0.8464,0.8468,0.8484,0.8489,0.8421,0.8421,0.8421,0,0.7886,0.7946,0.7972,0.8013,0.804,0.8058,0.8099,0.8127,0.8184,0.8202,0.8198,0.8287,0.8319,0.838,0.839,0.841,0.8422,0.8412,0.8461,0.8465,0.8469,0.8485,0.8491,0.8422,0.8422,0.8422,0.8422,0,0.7948,0.799,0.8016,0.807,0.81,0.8141,0.8173,0.82,0.8214,0.8239,0.8291,0.833,0.8378,0.8394,0.8408,0.8457,0.8454,0.8455,0.8447,0.8474,0.8489,0.8495,0.8422,0.8422,0.8422,0.8422,0,0,0.7978,0.8045,0.8055,0.8079,0.8131,0.8164,0.8205,0.8252,0.8275,0.8313,0.8349,0.8408,0.8409,0.8437,0.8455,0.8481,0.8514,0.8479,0.848,0.8484,0.857,0.8568,0.8575,0.852,0.8521,0.8522,0.8566,0,0.8018,0.8092,0.8117,0.8178,0.8217,0.8234,0.827,0.8306,0.8329,0.8365,0.8392,0.8433,0.8432,0.8449,0.8475,0.8504,0.8531,0.8501,0.8553,0.8555,0.8542,0.8583,0.8582,0.8622,0.8572,0.8573,0.8574,0,0.8076,0.8115,0.818,0.8227,0.8244,0.8275,0.832,0.8355,0.8395,0.8411,0.8442,0.8458,0.8501,0.8491,0.8551,0.853,0.8553,0.857,0.8573,0.8579,0.8566,0.859,0.8635,0.8641,0.8583,0.8583,0.8582,0,0.809,0.8159,0.8207,0.8228,0.8283,0.8305,0.8329,0.8369,0.8396,0.8435,0.8452,0.8496,0.852,0.8554,0.8581,0.8571,0.8639,0.8631,0.8653,0.8653,0.8667,0.8666,0.8716,0.8681,0.8681,0.8681,0.8681,0,0.8133,0.8172,0.8214,0.8244,0.8288,0.8316,0.8359,0.8384,0.8419,0.8454,0.8472,0.8504,0.8537,0.8574,0.8595,0.8642,0.8653,0.8667,0.8672,0.8665,0.8664,0.8681,0.8679,0.8683,0.8682,0.8682,0.8682,0,0.8157,0.8187,0.824,0.8288,0.8301,0.8332,0.8373,0.8402,0.8426,0.847,0.8482,0.852,0.8564,0.8594,0.8651,0.8665,0.8716,0.872,0.8702,0.8704,0.8725,0.8723,0.8789,0.8799,0.8757,0.8757,0.8757,0,0.8183,0.8213,0.8264,0.8289,0.8313,0.8352,0.8379,0.8407,0.8435,0.8483,0.8506,0.8551,0.8589,0.8658,0.8691,0.8734,0.874,0.876,0.8747,0.8739,0.8741,0.8739,0.8742,0.8762,0.8763,0.8763,0.8763,0,0.8225,0.8238,0.8276,0.8319,0.8351,0.8386,0.8422,0.8441,0.8476,0.8505,0.855,0.8579,0.8637,0.8681,0.8727,0.8752,0.8764,0.8767,0.8775,0.8768,0.8756,0.8763,0.8708,0.8766,0.8765,0.8765,0.8765,0.8765,0.825,0.8278,0.8318,0.836,0.839,0.8423,0.8453,0.848,0.8518,0.8567,0.8581,0.8628,0.8667,0.873,0.8756,0.8793,0.8792,0.8802,0.8805,0.8808,0.8807,0.875,0.8802,0.8802,0.8802,0.8802,0.8802,0,0.8293,0.832,0.8358,0.8407,0.844,0.8447,0.8487,0.8514,0.8555,0.8591,0.8627,0.8679,0.8722,0.8757,0.8802,0.8825,0.8831,0.8835,0.8834,0.884,0.8806,0.8795,0.883,0.883,0.883,0.883,0.883,0.883,0.8319,0.8367,0.8384,0.8447,0.8473,0.8519,0.8541,0.8571,0.86,0.8656,0.8692,0.8715,0.8751,0.8798,0.8838,0.8848,0.8863,0.8866,0.8877,0.8845,0.8842,0.8839,0.8829,0.887,0.887,0.8908,0.8908,0.8908]},{"header":{"parameterUnit":"m.s-1","parameterCategory":1,"la1":30.2991,"la2":30.254,"lo1":-89.0895,"lo2":-89.0444,"dy":0.0017,"dx":0.0017,"nx":28,"ny":28,"refTime":"2024-05-24T03:00:00:Z","depth":0,"parameterNumber":3,"parameterNumberName":"V-component_of_WINDS"},"data":[0,0,0,0,0,0,0,0,0,0,0,0,0,0,0,0,0,0,0,0,0,0,0,0,0,0,0,0,0,0,0,0,0,0,0,0,0,0,0,0,0,0,0,0,0,0,0,0,0,0,0,0,0,0,0,0,0,0,2.7765,2.7765,0,2.7811,2.7812,2.7812,2.7805,2.7804,2.7803,2.7803,2.7848,2.785,2.7852,0,0,0,0,0,0,0,0,0,0,0,0,0,2.7667,2.7668,2.7765,2.7765,2.7766,2.7811,2.7812,2.7812,2.7805,2.7804,2.7803,2.7802,2.7847,2.7849,2.7852,0,0,0,0,0,0,0,0,0,0,0,0,0,2.7711,2.7669,2.7765,2.7768,2.7769,2.7811,2.7812,2.7813,2.7805,2.7804,2.7803,2.7802,2.7846,2.7849,2.7852,2.7894,0,0,2.7861,2.7862,0,0,0,0,0,0,0,0,2.7708,2.7714,2.7767,2.7768,2.7769,2.7801,2.7794,2.784,2.7806,2.7791,2.7803,2.7801,2.7833,2.7837,2.7848,2.7896,2.7898,2.7861,2.7863,2.7864,2.7865,0,0,0,0,0,0,0,2.7705,2.7712,2.7783,2.7767,2.7769,2.7766,2.7771,2.7802,2.7818,2.7792,2.7792,2.7798,2.7833,2.7845,2.7849,2.7898,2.7861,2.7864,2.7865,2.7867,2.7981,2.7983,0,0,0,0,0,0,2.7702,2.771,2.7782,2.7784,2.7735,2.7769,2.7774,2.7792,2.7818,2.7821,2.7799,2.7797,2.7841,2.7846,2.7851,2.7901,2.7864,2.7867,2.7869,2.798,2.7982,2.7983,0,0,0,0,0,0,2.77,2.7708,2.778,2.7747,2.7756,2.7772,2.7791,2.7793,2.7806,2.7823,2.7825,2.7808,2.784,2.7847,2.7883,2.7902,2.7868,2.7871,2.7979,2.7981,2.7982,2.8002,0,0,0,0,0,0,2.7697,2.7707,2.7724,2.7747,2.7758,2.7812,2.7793,2.7795,2.7811,2.7809,2.7832,2.7835,2.784,2.7879,2.7886,2.7906,2.7873,2.7977,2.7979,2.7982,2.8,2.8004,2.8008,0,0,0,0,0,2.7693,2.7727,2.7725,2.7734,2.7779,2.7813,2.7819,2.7825,2.7812,2.7829,2.784,2.7834,2.7899,2.7883,2.7891,2.7912,2.7976,2.7979,2.7982,2.7998,2.8003,2.8008,0,0,0,0,0,0,2.7705,2.7731,2.7728,2.7771,2.779,2.7812,2.7833,2.7831,2.7853,2.7851,2.7856,2.7861,2.7898,2.7908,2.7889,2.7953,2.7935,2.794,2.7945,2.7951,2.7955,2.7952,2.7876,0,0,0,0,0,2.7713,2.774,2.776,2.7796,2.7805,2.7818,2.7833,2.7835,2.7855,2.7863,2.7876,2.7895,2.7919,2.7935,2.7959,2.8001,2.8005,2.8019,2.8023,2.8027,2.8031,2.8053,2.806,2.7993,2.7993,2.7993,0,0,2.7729,2.7746,2.7763,2.7799,2.7814,2.784,2.7825,2.7853,2.7873,2.7867,2.7903,2.7913,2.7934,2.7973,2.7991,2.7983,2.805,2.8031,2.8033,2.8036,2.8057,2.8063,2.8069,2.7995,2.7994,2.7994,0,0,2.7772,2.7788,2.782,2.7835,2.7858,2.7866,2.7874,2.7896,2.7903,2.7938,2.7934,2.7957,2.7999,2.8014,2.8027,2.8075,2.8071,2.8082,2.8105,2.8127,2.8132,2.8137,2.8154,2.816,2.8086,2.8086,2.8086,0,2.779,2.783,2.7836,2.7865,2.7881,2.7877,2.7909,2.7923,2.7952,2.7963,2.7953,2.8006,2.8019,2.8062,2.8073,2.8084,2.8092,2.808,2.8131,2.8136,2.814,2.8157,2.8163,2.8087,2.8087,2.8087,2.8087,0,2.785,2.7878,2.7901,2.793,2.7948,2.7978,2.7987,2.8004,2.8005,2.8013,2.8049,2.8065,2.8092,2.8102,2.8103,2.8145,2.8139,2.813,2.8113,2.8148,2.8163,2.817,2.8089,2.8089,2.8088,2.8088,0,0,2.7903,2.7935,2.7943,2.7956,2.7981,2.8002,2.8032,2.8058,2.8073,2.8093,2.8117,2.8152,2.8144,2.8159,2.8161,2.818,2.8217,2.8169,2.817,2.8178,2.8264,2.827,2.8278,2.8214,2.8215,2.8216,2.8262,0,2.7949,2.8003,2.8008,2.8055,2.8081,2.8077,2.8102,2.812,2.8128,2.815,2.8159,2.8184,2.8171,2.818,2.8199,2.8209,2.8234,2.8205,2.8236,2.8237,2.8232,2.8286,2.8293,2.8336,2.8268,2.8269,2.827,0,2.801,2.8033,2.8083,2.8104,2.8115,2.8138,2.8162,2.8183,2.8202,2.8207,2.8223,2.8223,2.8252,2.8233,2.8272,2.8253,2.8265,2.8272,2.8273,2.8277,2.8256,2.8291,2.835,2.8356,2.8279,2.8278,2.8278,0,2.8045,2.8087,2.8122,2.8134,2.8159,2.8175,2.8186,2.8204,2.8219,2.824,2.825,2.8273,2.8286,2.8304,2.8309,2.8295,2.8349,2.833,2.8353,2.8353,2.8365,2.8365,2.8427,2.8372,2.8372,2.8372,2.8372,0,2.8096,2.8126,2.8138,2.816,2.8194,2.8199,2.8232,2.8242,2.8258,2.8281,2.8278,2.8299,2.8305,2.8327,2.8331,2.8363,2.8368,2.8372,2.8373,2.8373,2.8373,2.8382,2.838,2.8374,2.8373,2.8373,2.8373,0,2.814,2.8149,2.8188,2.8208,2.8214,2.8238,2.8255,2.8275,2.8283,2.8312,2.8319,2.833,2.8356,2.8362,2.8393,2.8395,2.8434,2.8431,2.8428,2.8428,2.845,2.8448,2.8521,2.8531,2.8469,2.847,2.847,0,2.8173,2.8196,2.8219,2.8235,2.8247,2.8272,2.8288,2.8293,2.8309,2.8332,2.835,2.8375,2.8396,2.8437,2.8447,2.847,2.8468,2.8492,2.8472,2.8471,2.8469,2.8468,2.847,2.8497,2.8497,2.8498,2.8498,0,2.8229,2.8233,2.8256,2.8281,2.83,2.8319,2.8338,2.8351,2.8358,2.8376,2.8403,2.8419,2.845,2.8475,2.8498,2.8508,2.8505,2.8504,2.8511,2.8512,2.8509,2.8511,2.8439,2.8503,2.8503,2.8502,2.8502,2.8502,2.8269,2.829,2.831,2.8335,2.835,2.8367,2.8388,2.8397,2.842,2.8447,2.8447,2.8476,2.8493,2.8524,2.8535,2.8557,2.855,2.8559,2.8562,2.8564,2.8566,2.8505,2.8561,2.8561,2.8561,2.8561,2.8561,0,2.8326,2.8338,2.8362,2.8389,2.8409,2.8404,2.8424,2.8441,2.8466,2.8483,2.8503,2.8534,2.8558,2.8569,2.8593,2.8608,2.8607,2.8614,2.8613,2.8616,2.8571,2.8564,2.8615,2.8615,2.8615,2.8615,2.8615,2.8615,2.8358,2.8393,2.8399,2.844,2.8452,2.8481,2.8493,2.8508,2.8522,2.8556,2.8576,2.8584,2.8598,2.8622,2.8644,2.8647,2.8656,2.8664,2.8666,2.8624,2.8619,2.8614,2.8607,2.8666,2.8666,2.8708,2.8709,2.8709]}]]